Weather History for KOZR - October, 2013

Change the Weather History Date:

Saturday, October 12, 2013

  Actual Average (WUND) Record (WUND)
Temperature  
Mean Temperature 72 °F -  
Max Temperature 84 °F - - (-1)
Min Temperature 61 °F - - (-1)
Cooling Degree Days 8    
Growing Degree Days 22 (Base 50)    
Moisture  
Dew Point 61 °F    
Average Humidity 73    
Maximum Humidity 96    
Minimum Humidity 41    
Precipitation  
Precipitation 0.00 in - - ()
Sea Level Pressure  
Sea Level Pressure 30.05 in    
Wind  
Wind Speed 4 mph (NNW)    
Max Wind Speed 10 mph    
Max Gust Speed -    
Visibility 10 miles    
Events      
Averages and records for this station are not official NWS values.
T = Trace of Precipitation, MM = Missing Value Source: NWS Daily Summary

Daily Weather History Graph

Daily Weather History Graph

Search for Another Location

Airport or City:

Trip Planner

Search our weather history database for the weather conditions in past years. The results will help you decide how hot, cold, wet, or windy it might be!

Date:

Astronomy

Oct. 12, 2013 Rise Set
Actual Time 6:43 AM CDT 6:14 PM CDT
Civil Twilight 6:19 AM CDT 6:38 PM CDT
Nautical Twilight 5:51 AM CDT 7:06 PM CDT
Astronomical Twilight 5:23 AM CDT 7:34 PM CDT
Moon 2:01 PM CDT (10/12) 12:10 AM CDT (10/12)
Length of Visible Light 12h 19m
Length of Day
11h 30m
First Quarter, 59% of the Moon is Illuminated
Oct 12
First Quarter
Oct 18
Full
Oct 26
Last Quarter
Nov 3
New
Nov 9
First Quarter

Hourly Weather History & Observations

Time (CDT) Temp. Heat Index Dew Point Humidity Pressure Visibility Wind Dir Wind Speed Gust Speed Precip Events Conditions
12:58 AM 62.2 °F - 61.0 °F 96% 30.02 in 9.0 mi WSW 2.3 mph - N/A   Clear
1:58 AM 61.9 °F - 60.1 °F 94% 30.02 in 10.0 mi NNE 2.3 mph - N/A   Clear
2:58 AM 62.1 °F - 60.6 °F 95% 30.01 in 9.0 mi WSW 4.6 mph - N/A   Mostly Cloudy
3:58 AM 63.3 °F - 61.3 °F 93% 30.01 in 10.0 mi NNW 1.2 mph - N/A   Overcast
4:58 AM 63.1 °F - 60.8 °F 92% 30.03 in 10.0 mi NE 3.5 mph - N/A   Mostly Cloudy
5:58 AM 63.1 °F - 61.3 °F 94% 30.04 in 10.0 mi North 3.5 mph - N/A   Mostly Cloudy
6:58 AM 62.2 °F - 60.3 °F 93% 30.06 in 10.0 mi NNW 4.6 mph - N/A   Mostly Cloudy
7:58 AM 66.9 °F - 61.5 °F 83% 30.09 in 10.0 mi NNW 3.5 mph - N/A   Mostly Cloudy
8:58 AM 70.7 °F - 63.7 °F 78% 30.09 in 10.0 mi WNW 3.5 mph - N/A   Partly Cloudy
9:58 AM 76.1 °F - 63.9 °F 66% 30.09 in 10.0 mi NNW 5.8 mph - N/A   Clear
10:58 AM 80.2 °F 81.8 °F 63.7 °F 57% 30.09 in 10.0 mi NW 8.1 mph - N/A   Clear
11:58 AM 81.9 °F 82.3 °F 60.3 °F 48% 30.08 in 10.0 mi WNW 8.1 mph - N/A   Scattered Clouds
12:58 PM 82.6 °F 82.9 °F 60.3 °F 47% 30.06 in 10.0 mi NW 8.1 mph - N/A   Partly Cloudy
1:58 PM 83.5 °F 82.9 °F 57.2 °F 41% 30.04 in 10.0 mi NW 8.1 mph - N/A   Partly Cloudy
2:58 PM 84.6 °F 84.2 °F 59.0 °F 42% 30.03 in 10.0 mi North 10.4 mph - N/A   Mostly Cloudy
3:58 PM 84.4 °F 83.8 °F 58.3 °F 41% 30.03 in 10.0 mi NNW 10.4 mph - N/A   Clear
4:58 PM 82.9 °F 82.8 °F 58.8 °F 44% 30.03 in 10.0 mi NNW 8.1 mph - N/A   Clear
5:58 PM 79.0 °F - 60.1 °F 52% 30.04 in 10.0 mi NNE 4.6 mph - N/A   Clear
6:58 PM 73.9 °F - 60.4 °F 63% 30.04 in 10.0 mi North 4.6 mph - N/A   Clear
7:58 PM 69.3 °F - 61.3 °F 76% 30.06 in 10.0 mi NNW 2.3 mph - N/A   Clear
8:58 PM 66.7 °F - 61.5 °F 83% 30.09 in 10.0 mi Calm Calm - N/A   Clear
9:58 PM 64.4 °F - 61.0 °F 89% 30.09 in 10.0 mi NW 2.3 mph - N/A   Clear
10:58 PM 64.4 °F - 61.2 °F 89% 30.09 in 10.0 mi Calm Calm - N/A   Clear
11:58 PM 61.2 °F - 58.6 °F 91% 30.08 in 10.0 mi NNE 3.5 mph - N/A   Clear